Waarnemingen

Advertentie
Mijn weer
Lichtenhain-Mittelndorf, Duitsland (10591): temperatuur & dauwpunt: 14.06.2018 09:00:00 - 20.06.2018 09:00:00 (CEST)Lichtenhain-Mittelndorf, Duitsland (10591): temperatuur 5cm & temperatuur -5cm: 14.06.2018 09:00:00 - 20.06.2018 09:00:00 (CEST)Lichtenhain-Mittelndorf, Duitsland (10591): temperatuur -20cm & temperatuur -100cm: 14.06.2018 09:00:00 - 20.06.2018 09:00:00 (CEST)Lichtenhain-Mittelndorf, Duitsland (10591): windsnelheid & windstoten: 14.06.2018 09:00:00 - 20.06.2018 09:00:00 (CEST)Lichtenhain-Mittelndorf, Duitsland (10591): windrichting: 14.06.2018 09:00:00 - 20.06.2018 09:00:00 (CEST)Lichtenhain-Mittelndorf, Duitsland (10591): luchtdruk: 14.06.2018 09:00:00 - 20.06.2018 09:00:00 (CEST)Lichtenhain-Mittelndorf, Duitsland (10591): zicht: 14.06.2018 09:00:00 - 20.06.2018 09:00:00 (CEST)Lichtenhain-Mittelndorf, Duitsland (10591): Zonneschijnduur: 14.06.2018 09:00:00 - 20.06.2018 09:00:00 (CEST)Lichtenhain-Mittelndorf, Duitsland (10591): neerslag: 14.06.2018 09:00:00 - 20.06.2018 09:00:00 (CEST)
Datum & Tijd tt [°C] td [°C] tt 5cm [°C] tt -5cm [°C] tt -20cm [°C] tt -100cm [°C] ff [km/u] ff [kn] fx [km/u] fx [kn] dd ppp [hPa] vv [km] sd [min] rr [mm]
20.06.2018 09:00:00 19,7 13,9 22,6 21,2 19,8 17,2 7 4 13 7 OZO 1023,5 24 10 0,0
20.06.2018 08:00:00 17,9 14,3 19,6 19,4 19,9 17,2 4 2 10 6 ZO 1023,9 23 10 0,0
20.06.2018 07:00:00 18,0 13,8 18,0 18,5 20,0 17,2 3 1 11 6 ZZO 1024,0 23 22 0,0
20.06.2018 06:00:00 16,8 13,6 16,8 18,4 20,2 17,2 3 2 10 5 WNW 1024,0 20 2 0,0
20.06.2018 05:00:00 16,1 13,1 15,7 18,6 20,4 17,2 9 5 11 6 ZW 1023,9 26 0 0,0
20.06.2018 04:00:00 17,0 13,3 16,6 18,7 20,6 17,2 5 3 9 5 NNW 1023,6 29 0 0,0
20.06.2018 03:00:00 16,8 12,9 16,5 18,9 20,9 17,2 5 3 7 4 N 1023,7 29 0 0,0
20.06.2018 02:00:00 16,9 12,9 16,1 19,0 21,2 17,2 2 1 4 2 ZW 1023,8 30 0 0,0
20.06.2018 01:00:00 17,1 12,9 15,0 19,0 21,6 17,2 4 2 6 4 ZZO 1023,6 32 0 0,0
20.06.2018 00:00:00 18,3 12,7 16,4 19,8 21,9 17,2 6 3 9 5 NNW 1023,3 38 0 0,0
19.06.2018 23:00:00 18,8 12,7 16,8 20,7 22,2 17,2 8 4 10 5 WNW 1023,2 40 0 0,0
19.06.2018 22:00:00 20,1 12,6 18,4 22,0 22,4 17,2 6 3 16 9 WNW 1022,7 25 0 0,0
19.06.2018 21:00:00 20,9 12,5 20,5 22,9 22,6 17,2 10 5 18 10 NW 1022,1 44 0 0,0
19.06.2018 20:00:00 21,7 12,5 21,9 23,7 22,7 17,2 13 7 19 10 NNW 1021,8 40 0 0,0
19.06.2018 19:00:00 21,9 12,6 22,5 24,6 22,6 17,2 12 7 19 11 NNW 1021,7 43 0 0,0
19.06.2018 18:00:00 22,4 12,5 23,8 26,3 22,3 17,2 8 4 28 15 W 1021,4 40 20 0,0
19.06.2018 17:00:00 23,7 13,4 27,2 26,9 22,1 17,2 12 7 24 13 WNW 1021,2 30 26 0,0
19.06.2018 16:00:00 21,5 13,0 22,8 25,8 21,7 17,2 12 7 26 14 W 1022,0 39 4 0,0
19.06.2018 15:00:00 22,4 13,4 26,1 26,7 21,3 17,2 12 6 29 16 W 1021,8 31 8 0,0
19.06.2018 14:00:00 21,6 13,2 25,9 26,2 20,8 17,2 9 5 30 16 WNW 1021,8 30 6 0,0
19.06.2018 13:00:00 20,8 13,5 23,6 25,5 20,2 17,1 14 7 31 17 W 1022,0 25 20 0,0
19.06.2018 12:00:00 21,6 13,8 29,0 24,4 19,8 17,1 9 5 19 10 WNW 1021,7 32 16 0,0
19.06.2018 11:00:00 20,4 12,9 26,1 23,5 19,4 17,1 10 6 22 12 W 1021,8 27 16 0,0
19.06.2018 10:00:00 19,0 12,8 21,2 21,0 19,2 17,1 11 6 21 11 WNW 1022,2 32 0 0,0
19.06.2018 09:00:00 18,5 12,2 21,6 19,8 19,0 17,1 7 4 15 8 W 1022,0 35 2 0,0
19.06.2018 08:00:00 18,5 12,5 20,9 18,3 19,1 17,1 2 1 11 6 O 1021,8 30 39 0,0
19.06.2018 07:00:00 17,4 12,4 15,3 16,6 19,3 17,1 6 3 11 6 OZO 1021,6 26 60 0,0
19.06.2018 06:00:00 14,3 10,6 12,9 16,2 19,7 17,1 8 4 13 7 O 1021,8 27 31 0,0
19.06.2018 05:00:00 13,7 10,3 12,5 16,5 20,0 17,1 5 3 11 6 OZO 1021,8 21 0 0,0
19.06.2018 04:00:00 13,0 10,0 10,8 16,9 20,3 17,1 6 3 16 9 OZO 1021,9 22 0 0,0
19.06.2018 03:00:00 14,0 10,7 13,7 17,8 20,6 17,1 8 5 15 8 O 1021,7 24 0 0,0
19.06.2018 02:00:00 14,0 10,4 13,8 17,7 21,0 17,1 7 4 15 8 O 1021,9 23 0 0,0
19.06.2018 01:00:00 15,0 10,4 12,9 18,1 21,5 17,1 8 5 13 7 O 1021,7 28 0 0,0
19.06.2018 00:00:00 15,1 10,4 11,2 18,8 21,9 17,1 4 2 11 6 O 1021,7 28 0 0,0
18.06.2018 23:00:00 16,4 10,8 12,3 19,9 22,3 17,1 5 3 11 6 OZO 1021,4 31 0 0,0
18.06.2018 22:00:00 18,4 10,2 16,4 21,2 22,6 17,1 7 4 10 5 ZO 1020,8 37 1 0,0
18.06.2018 21:00:00 19,4 10,2 16,9 22,7 22,7 17,0 2 1 8 5 ZZO 1020,0 42 0 0,0
18.06.2018 20:00:00 19,8 10,2 20,4 23,9 22,8 17,0 4 2 17 9 NNW 1020,1 39 11 0,0
18.06.2018 19:00:00 20,0 9,8 20,9 25,3 22,6 17,0 10 6 28 15 NW 1019,9 41 34 0,0
18.06.2018 18:00:00 21,3 9,5 24,8 26,6 22,3 17,0 19 10 31 17 N 1019,9 27 54 0,0
18.06.2018 17:00:00 21,6 10,3 26,6 25,6 22,2 17,0 14 7 25 13 WZW 1019,8 25 21 0,0
18.06.2018 16:00:00 19,5 11,0 22,8 24,1 22,2 17,0 7 4 18 10 WNW 1020,4 23 1 0,0
18.06.2018 15:00:00 18,5 11,0 20,4 23,7 22,2 17,0 8 4 21 11 WNW 1020,6 28 0 0,0
18.06.2018 14:00:00 18,4 11,3 20,5 24,3 22,0 17,0 16 8 29 16 NNW 1020,7 23 0 0,0
18.06.2018 13:00:00 19,6 11,1 22,9 26,1 21,5 17,0 12 7 22 12 NW 1020,4 28 2 0,0
18.06.2018 12:00:00 20,7 9,4 29,3 27,5 20,8 17,0 6 4 27 15 NNW 1020,3 25 60 0,0
18.06.2018 11:00:00 19,9 9,7 26,4 26,2 20,2 17,0 14 8 26 14 N 1020,2 26 60 0,0
18.06.2018 10:00:00 19,2 10,7 25,2 23,5 19,8 16,9 15 8 22 12 N 1020,4 20 59 0,0
18.06.2018 09:00:00 18,1 10,2 24,5 20,8 19,6 16,9 6 3 13 7 WNW 1020,2 34 60 0,0
18.06.2018 08:00:00 16,2 11,0 21,5 18,1 19,8 16,9 5 3 16 9 NW 1019,9 19 60 0,0
18.06.2018 07:00:00 14,8 11,8 15,2 17,1 20,1 16,9 4 2 15 8 W 1020,0 19 60 0,0
18.06.2018 06:00:00 14,4 12,3 12,2 16,7 20,5 16,9 0 0 6 4 N 1019,8 14 12 0,0
18.06.2018 05:00:00 14,4 12,0 12,2 17,4 20,8 16,9 5 3 10 6 W 1019,4 17 0 0,0
18.06.2018 04:00:00 14,0 12,8 13,1 18,0 21,2 16,9 8 5 11 6 WNW 1018,9 9 0 0,0
18.06.2018 03:00:00 15,2 12,9 14,3 18,8 21,5 16,9 6 4 9 5 WNW 1018,3 15 0 0,0
18.06.2018 02:00:00 15,5 13,2 14,8 19,3 21,9 16,9 7 4 10 5 WZW 1018,6 14 0 0,0
18.06.2018 01:00:00 16,2 13,8 15,4 19,9 22,3 16,9 3 2 5 3 NW 1018,3 15 0 0,0
18.06.2018 00:00:00 16,5 14,1 15,9 20,3 22,6 16,8 4 2 7 4 NNW 1018,2 15 0 0,0
17.06.2018 23:00:00 16,3 13,6 15,0 21,0 23,0 16,8 6 3 8 4 N 1017,8 16 0 0,0
17.06.2018 22:00:00 17,3 14,0 16,7 21,9 23,4 16,8 4 2 19 10 N 1017,6 24 0 0,0
17.06.2018 21:00:00 18,0 13,7 18,0 22,9 23,7 16,8 11 6 23 12 NW 1016,8 25 5 0,0
17.06.2018 20:00:00 19,1 13,5 20,3 23,7 24,0 16,8 12 6 27 15 WNW 1016,3 37 7 0,0
17.06.2018 19:00:00 18,7 13,0 19,7 24,7 24,3 16,8 8 4 26 14 W 1015,8 36 0 0,0
17.06.2018 18:00:00 19,0 12,2 19,9 26,1 24,4 16,8 18 10 40 21 NNW 1015,1 38 1 0,0
17.06.2018 17:00:00 22,2 13,3 25,8 28,6 24,2 16,8 22 12 55 30 W 1015,0 31 14 0,0
17.06.2018 16:00:00 26,0 10,3 31,0 29,6 23,9 16,8 9 5 15 8 WNW 1013,4 29 12 0,0
17.06.2018 15:00:00 24,7 11,3 27,0 29,7 23,4 16,8 8 5 24 13 NW 1013,7 30 2 0,0
17.06.2018 14:00:00 26,2 10,0 33,7 31,5 22,6 16,8 8 4 18 10 OZO 1013,6 29 32 0,0
17.06.2018 13:00:00 25,0 10,5 29,0 31,8 21,6 16,8 10 6 23 12 W 1014,1 28 48 0,0
17.06.2018 12:00:00 26,0 11,0 34,7 29,8 20,7 16,7 7 4 16 9 WZW 1014,3 22 60 0,0
17.06.2018 11:00:00 23,9 10,8 31,3 26,6 20,0 16,7 7 4 19 10 WNW 1014,9 24 48 0,0
17.06.2018 10:00:00 23,4 11,5 29,5 24,6 19,5 16,7 5 3 10 5 ZZO 1014,8 27 60 0,0
17.06.2018 09:00:00 21,3 10,7 25,0 20,9 19,4 16,7 5 3 11 6 OZO 1014,9 28 42 0,0
17.06.2018 08:00:00 18,5 11,3 18,9 18,5 19,5 16,7 5 3 11 6 O 1015,1 22 0 0,0
17.06.2018 07:00:00 17,2 11,5 17,5 17,6 19,7 16,7 6 3 16 9 O 1015,1 21 17 0,0
17.06.2018 06:00:00 16,9 9,7 15,6 16,8 20,1 16,7 11 6 18 10 O 1015,0 28 25 0,0
17.06.2018 05:00:00 15,5 9,9 12,8 16,8 20,5 16,7 7 4 12 6 ONO 1015,1 24 0 0,0
17.06.2018 04:00:00 13,8 10,2 12,6 17,1 20,9 16,7 5 3 11 6 NNO 1015,6 16 0 0,0
17.06.2018 03:00:00 15,0 10,4 11,8 17,9 21,4 16,7 4 2 13 7 O 1015,6 20 0 0,0
17.06.2018 02:00:00 15,7 10,5 12,7 18,5 21,8 16,7 3 1 9 5 O 1015,6 20 0 0,0
17.06.2018 01:00:00 16,0 10,6 13,5 19,2 22,3 16,7 5 3 9 5 NO 1015,7 22 0 0,0
17.06.2018 00:00:00 17,1 10,5 14,8 20,2 22,9 16,7 6 4 11 6 ONO 1015,4 21 0 0,0
16.06.2018 23:00:00 18,5 10,5 14,3 21,3 23,3 16,7 9 5 12 7 OZO 1015,3 23 0 0,0
16.06.2018 22:00:00 19,6 10,5 15,2 22,7 23,7 16,7 10 5 11 6 OZO 1015,0 26 0 0,0
16.06.2018 21:00:00 21,2 10,1 19,5 24,6 24,0 16,7 10 5 20 11 ONO 1014,5 25 8 0,0
16.06.2018 20:00:00 22,4 9,9 21,4 26,8 24,0 16,7 10 6 19 10 O 1014,0 28 42 0,0
16.06.2018 19:00:00 24,8 10,0 26,4 28,8 23,8 16,7 8 5 16 9 O 1013,8 27 60 0,0
16.06.2018 18:00:00 24,9 10,1 26,9 29,1 23,5 16,7 8 4 14 8 NO 1014,0 37 28 0,0
16.06.2018 17:00:00 23,8 9,2 25,9 30,3 23,0 16,7 8 5 16 9 ONO 1014,4 36 36 0,0
16.06.2018 16:00:00 24,2 8,7 29,9 30,0 22,4 16,7 6 3 14 8 NNW 1014,8 28 24 0,0
16.06.2018 15:00:00 24,2 9,1 28,7 30,2 21,8 16,7 11 6 25 14 O 1015,1 30 41 0,0
16.06.2018 14:00:00 23,3 9,6 26,2 27,5 21,2 16,7 9 5 14 8 ONO 1015,6 35 0 0,0
16.06.2018 13:00:00 23,4 8,3 27,2 29,2 20,3 16,7 7 4 16 9 Z 1015,8 31 39 0,0
16.06.2018 12:00:00 23,4 7,6 30,1 27,6 19,5 16,7 4 2 18 10 NNO 1016,3 32 55 0,0
16.06.2018 11:00:00 21,1 11,2 25,5 23,5 19,1 16,7 8 5 16 8 ZZO 1016,7 27 6 0,0
16.06.2018 10:00:00 19,8 11,5 23,2 21,8 18,8 16,7 9 5 13 7 ZZO 1016,9 24 0 0,0
16.06.2018 09:00:00 18,6 11,4 20,7 20,1 18,7 16,6 4 2 7 4 O 1017,2 22 0 0,0
16.06.2018 08:00:00 17,0 12,4 18,8 18,5 18,7 16,7 3 2 5 3 OZO 1017,2 19 2 0,0
16.06.2018 07:00:00 14,9 12,1 15,6 17,3 18,9 16,7 3 1 4 2 OZO 1017,4 14 0 0,0
16.06.2018 06:00:00 14,0 11,8 14,0 17,0 19,1 16,7 3 2 6 3 O 1017,3 14 0 0,0
16.06.2018 05:00:00 14,4 11,6 13,9 17,2 19,3 16,7 2 1 4 2 O 1017,3 14 0 0,0
16.06.2018 04:00:00 14,2 11,5 14,0 17,4 19,6 16,7 2 1 9 5 NNO 1017,7 16 0 0,0
16.06.2018 03:00:00 14,3 11,9 14,3 17,8 19,9 16,7 5 3 7 4 ZZO 1017,9 13 0 0,0
16.06.2018 02:00:00 14,7 11,8 14,3 18,1 20,2 16,7 2 1 5 3 NW 1017,8 15 0 0,0
16.06.2018 01:00:00 14,7 11,5 14,3 18,3 20,6 16,7 4 2 8 4 NO 1017,9 16 0 0,0
16.06.2018 00:00:00 16,0 11,8 14,8 18,6 21,1 16,7 3 2 5 3 NNO 1017,8 20 0 0,0
15.06.2018 23:00:00 16,9 11,5 13,4 19,5 21,5 16,7 2 1 6 4 ZW 1017,5 21 0 0,0
15.06.2018 22:00:00 17,4 11,5 14,2 20,9 21,8 16,7 5 3 14 7 NNO 1017,1 25 0 0,0
15.06.2018 21:00:00 18,9 11,4 17,8 22,6 22,0 16,7 9 5 15 8 NNO 1016,5 26 31 0,0
15.06.2018 20:00:00 20,2 11,2 20,6 24,0 22,1 16,7 8 5 23 13 N 1016,2 28 29 0,0
15.06.2018 19:00:00 20,6 10,8 21,5 25,9 22,0 16,8 17 9 27 15 NNW 1015,8 20 57 0,0
15.06.2018 18:00:00 22,3 9,5 25,7 26,6 21,7 16,8 15 8 24 13 NW 1015,6 18 60 0,0
15.06.2018 17:00:00 21,7 8,1 24,0 26,6 21,4 16,8 10 6 19 10 NNO 1015,9 35 29 0,0
15.06.2018 16:00:00 21,8 7,5 24,4 28,4 20,7 16,8 9 5 23 12 NNO 1015,9 32 21 0,0
15.06.2018 15:00:00 23,6 9,6 30,2 29,6 19,8 16,8 11 6 20 11 NO 1015,6 29 55 0,0
15.06.2018 14:00:00 21,9 10,0 28,2 27,1 18,9 16,8 8 4 19 11 NW 1015,9 34 35 0,0
15.06.2018 13:00:00 21,1 8,6 28,4 26,4 18,0 16,8 4 2 16 9 NNW 1016,3 25 60 0,0
15.06.2018 12:00:00 20,0 10,2 28,0 24,6 17,1 16,8 5 3 11 6 NW 1016,5 18 60 0,0
15.06.2018 11:00:00 18,5 10,6 24,8 22,6 16,4 16,8 6 3 14 8 ZW 1016,7 17 60 0,0
15.06.2018 10:00:00 15,9 10,1 20,6 18,7 16,0 16,8 9 5 18 10 W 1017,2 14 59 0,0
15.06.2018 09:00:00 14,1 9,5 17,9 15,8 15,9 16,8 8 4 13 7 W 1017,4 12 60 0,0
15.06.2018 08:00:00 12,3 9,2 13,7 13,9 16,1 16,9 2 1 6 3 W 1017,3 12 51 0,0
15.06.2018 07:00:00 9,7 8,0 9,4 12,4 16,4 16,9 3 2 4 2 OZO 1017,4 8 9 0,0
15.06.2018 06:00:00 8,6 7,3 7,3 12,1 16,7 16,9 2 1 6 3 O 1017,1 9 0 0,0
15.06.2018 05:00:00 8,8 7,3 7,6 12,4 17,2 16,9 5 3 6 3 ZO 1016,9 8 0 0,0
15.06.2018 04:00:00 9,4 7,5 7,1 12,9 17,6 16,9 5 3 9 5 O 1016,7 12 0 0,0
15.06.2018 03:00:00 9,8 7,9 6,9 13,6 18,1 16,9 3 2 9 5 O 1016,7 11 0 0,0
15.06.2018 02:00:00 10,7 8,0 8,7 14,3 18,5 17,0 5 3 7 4 O 1016,4 12 0 0,0
15.06.2018 01:00:00 11,2 8,2 9,1 15,1 19,0 17,0 6 3 11 6 O 1016,4 13 0 0,0
15.06.2018 00:00:00 11,3 8,5 8,2 16,1 19,5 17,0 2 1 12 6 ZO 1016,5 14 0 0,0
14.06.2018 23:00:00 12,9 8,6 10,0 17,2 20,0 17,0 5 3 8 4 OZO 1016,5 18 0 0,0
14.06.2018 22:00:00 14,5 8,7 11,8 18,7 20,3 17,0 2 1 9 5 ZZO 1015,9 21 0 0,0
14.06.2018 21:00:00 16,6 8,1 13,9 20,8 20,5 17,1 5 3 10 5 ZZO 1015,0 26 35 0,0
14.06.2018 20:00:00 19,0 7,0 18,1 23,1 20,4 17,1 2 1 11 6 W 1014,3 25 60 0,0
14.06.2018 19:00:00 18,2 7,1 20,4 24,7 20,1 17,1 10 5 15 8 Z 1014,3 40 54 0,0
14.06.2018 18:00:00 17,9 6,9 19,5 25,9 19,5 17,1 8 4 13 7 Z 1014,5 32 39 0,0
14.06.2018 17:00:00 18,5 6,8 22,0 26,9 18,7 17,1 8 4 16 9 NNO 1014,9 45 51 0,0
14.06.2018 16:00:00 18,4 6,5 24,0 26,7 17,8 17,1 6 4 27 15 ZW 1015,4 41 55 0,0
14.06.2018 15:00:00 17,8 6,3 23,2 24,2 17,0 17,2 13 7 24 13 W 1015,8 22 53 0,0
14.06.2018 14:00:00 17,5 7,8 24,1 21,9 16,4 17,2 9 5 20 11 W 1016,1 29 20 0,0
14.06.2018 13:00:00 15,4 7,0 18,7 19,5 16,0 17,2 5 3 18 10 ZZW 1016,7 30 0 0,0
14.06.2018 12:00:00 14,5 8,2 16,7 17,5 15,7 17,2 8 5 16 9 NNW 1017,2 31 0 0,0
14.06.2018 11:00:00 14,0 8,2 16,4 16,3 15,5 17,2 10 5 14 8 WNW 1017,1 25 0 0,0
14.06.2018 10:00:00 13,3 9,0 14,8 15,3 15,3 17,2 6 4 13 7 WNW 1017,0 26 0 0,0
14.06.2018 09:00:00 13,2 9,3 14,7 14,5 15,3 17,3 7 4 13 7 WNW 1016,8 23 0 0,0

tt = temperatuur
td = dauwpunt
tt 5cm = temperatuur 5cm
tt -5cm = temperatuur -5cm
tt -20cm = temperatuur -20cm
tt -100cm = temperatuur -100cm
ff = windsnelheid
fx = windstoten
dd = windrichting
ppp = luchtdruk
vv = zicht
sd = Zonneschijnduur
rr = neerslag

Weerstations in de omgeving